Regional Weather Roundup
Issued by NWS

Home | Current Version | Previous Version | Graphics & Text | Print | Product List | Glossary On
Versions: 1 2 3 4 5 6 7 8 9 10 11 12 13 14 15 16 17 18 19 20 21 22 23 24 25 26 27 28 29 30 31 32 33 34 35 36 37 38 39 40 41 42 43 44 45 46 47 48
000
ASUS45 KBOU 201207
RWRCO

WEATHER ROUNDUP FOR COLORADO
NATIONAL WEATHER SERVICE DENVER/BOULDER CO
600 AM MDT SAT SEP 20 2014

NOTE: "FAIR" INDICATES FEW OR NO CLOUDS BELOW 12000 FEET WITH NO
SIGNIFICANT WEATHER AND/OR OBSTRUCTIONS TO VISIBILITY.

COZ001>005-013-030-031-201300-
...NORTHWEST COLORADO...

CITY           SKY/WX    TMP DP  RH WIND       PRES   REMARKS
CRAIG          CLEAR     39  37  92 E3        30.28R
HAYDEN         CLEAR     48  39  71 SE12      30.28R
MEEKER           N/A     45  40  82 CALM      30.28
MOUNT WERNER   NOT AVBL
STEAMBOAT SPGS CLEAR     43  40  90 CALM      30.31R
WALDEN         CLEAR     34  32  93 NE5       30.36R WCI  30
$$

COZ006>008-011-201300-
...WEST CENTRAL VALLEYS...

CITY           SKY/WX    TMP DP  RH WIND       PRES   REMARKS
GRAND JUNCTION CLEAR     59  43  55 SE9       30.12R
MONTROSE       CLEAR     56  44  64 SE6       30.20R
EAGLE          CLEAR     46  43  87 CALM      30.32R
RIFLE          CLEAR     52  43  71 S3        30.21R
DELTA          CLEAR     55  43  63 E7        30.17R
NUCLA          CLEAR     54  43  66 SE5       30.21R
$$

COZ017>023-064>068-201300-
...SOUTHWEST COLORADO...

CITY           SKY/WX    TMP DP  RH WIND       PRES   REMARKS
DURANGO        CLEAR     52  42  69 N5        30.21R
CORTEZ         CLEAR     49  44  83 E3        30.15R
PAGOSA SPRINGS CLEAR     47  42  81 CALM      30.29R
TELLURIDE      NOT AVBL
WOLF CREEK PAS CLEAR     45  32  61 NE18      30.58R
$$

COZ009-010-012-014-032>034-037-058>063-201300-
...CENTRAL COLORADO...

CITY           SKY/WX    TMP DP  RH WIND       PRES   REMARKS
ASPEN          CLEAR     47  39  74 SW7       30.34R
BUENA VISTA    CLEAR     46  36  68 W5        30.36R
COPPER MTN     CLEAR     46  36  66 S9        30.62S
BERTHOUD PASS  FAIR      37  36  93 NW15      30.65R
COTTONWOOD PAS CLEAR     57  34  41 CALM      30.47R
GUNNISON       PTCLDY    39  34  81 CALM      30.38R
KREMMLING      CLEAR     37  34  87 CALM      30.37R
LEADVILLE      CLEAR     39  36  89 NE5       30.47R
MONARCH PASS   CLEAR     46  32  57 E12       30.70R
SALIDA         CLEAR     49  38  67 W5        30.41R
SUNLIGHT       CLEAR     50  39  66 NE5       30.54R
WILKERSON PASS NOT AVBL
$$

COZ069>075-201300-
...SAN LUIS VALLEY/SANGRE DE CRISTO MOUNTAINS...

CITY           SKY/WX    TMP DP  RH WIND       PRES   REMARKS
ALAMOSA        PTCLDY    42  35  76 NW6       30.30R
LA VETA PASS   CLEAR     52  43  71 W3        30.47R
SAGUACHE       NOT AVBL
$$

COZ035-036-038>040-201300-
...NORTHERN COLORADO FRONT RANGE...

CITY           SKY/WX    TMP DP  RH WIND       PRES   REMARKS
DENVER INTL AP PTCLDY    57  47  69 W3        30.16R
DMNS CITY PARK   N/A     59  48  67 S2        30.17R
AURORA         PTCLDY    57  46  67 SW3       30.18R
FRONT RANGE AP NOT AVBL
ERIE MUNI ARPT CLEAR     56  48  75 CALM      30.15R
BOULDER MUN AP CLEAR     61  46  59 SW3       30.16R
CENTENNIAL     PTCLDY    56  45  66 CALM      30.18R
BROOMFIELD     CLEAR     61  46  59 NW13      30.18R
FORT COLLINS   CLEAR     59  46  63 N5        30.17R
LONGMONT       CLEAR     56  49  75 S3        30.17R
$$

COZ041-046-047-076>085-087-088-201300-
...PIKES PEAK/PALMER DIVIDE AND SOUTHERN FOOTHILLS...

CITY           SKY/WX    TMP DP  RH WIND       PRES   REMARKS
COLO. SPRINGS  CLEAR     62  43  49 N10       30.20R
A. F. ACADEMY  CLEAR     52  42  70 N8        30.23R
ELLICOTT       NOT AVBL
FALCON         CLEAR     60  42  52 N12       30.25R
FORT CARSON    CLEAR     60  44  56 NW10      30.16R
LIMON          CLEAR     54  48  80 NW9       30.14R
MONUMENT HILL  CLEAR     50  41  71 W7        30.25R
TRINIDAD       CLEAR     56  44  64 W12       30.14S
$$

COZ042>045-048>051-090-091-201300-
...NORTHEAST COLORADO...

CITY           SKY/WX    TMP DP  RH WIND       PRES   REMARKS
GREELEY ARPT   CLEAR     54  43  66 CALM      30.16R
AKRON          CLEAR     57  50  77 N15       30.10R
BURLINGTON     CLEAR     58  55  90 NW9       30.05R
WRAY           CLEAR     60  53  79 NW8       30.05R
STERLING       CLEAR     57  54  88 N6        30.10R
HOLYOKE        CLEAR     61  54  77 NW10      30.06R
FORT MORGAN    CLEAR     58  49  69 N17       30.12R
$$

COZ086-089-092>099-201300-
...SOUTHEAST COLORADO...

CITY           SKY/WX    TMP DP  RH WIND       PRES   REMARKS
PUEBLO         CLEAR     60  43  53 S5        30.09R
LA JUNTA       CLEAR     55  52  89 NW7       30.06R
LAMAR          CLEAR     53  52  96 W3        29.99R
SPRINGFIELD      N/A     58  58 100 CALM      30.03S
$$


USA.gov is the U.S. government's official web portal to all federal, state and local government web resources and services.